Regional Weather Roundup
Issued by NWS Wakefield, VA

Home | Current Version | Previous Version | Graphics & Text | Print | Product List | Glossary On
Versions: 1 2 3 4 5 6 7 8 9 10 11 12 13 14 15 16 17 18 19 20 21 22 23 24 25 26 27 28 29 30 31 32 33 34 35 36 37 38 39 40 41 42 43 44 45 46 47 48 49 50
000
ASUS41 KAKQ 221410
RWRAKQ

REGIONAL WEATHER ROUNDUP
NATIONAL WEATHER SERVICE WAKEFIELD VA
1000 AM EDT TUE JUL 22 2014

Note: "fair" indicates few or no clouds below 12,000 feet with no
significant weather and/or obstructions to visibility. * = Denotes
station may not report precipitation (e.g., rain,snow,etc.),
thunder or fog.

VAZ042-051-052>054-056-221500-
NORTHERN VIRGINIA

CITY           SKY/WX    TMP DP  RH WIND       PRES   REMARKS
WASH NATIONAL  PTSUNNY   80  70  71 S8        30.20S
DULLES         CLOUDY    75  70  83 SW6       30.20S
FORT BELVOIR   PTSUNNY   77  72  83 VRB1      30.20S
QUANTICO       PTSUNNY   78  70  76 S7        30.20F
FREDERICKSBRG* CLOUDY    78  72  81 S5        30.19S
STAFFORD*      CLOUDY    76  75  99 SW3       30.23F
WARRENTON      MOSUNNY   78  75  88 CALM      30.20S
CULPEPER*      CLOUDY   N/A N/A N/A CALM      30.20S
MANASSAS*      CLOUDY    75  73  94 S7        30.20S
LEESBURG*      CLOUDY    75  73  94 SW3       30.21S
WINCHESTER     CLOUDY    77  70  78 SE3       30.19F
$$

VAZ048-049-060>072-079>083-221500-
CENTRAL AND SOUTH CENTRAL VIRGINIA...AND NORTH CENTRAL NORTH CAROLINA

CITY           SKY/WX    TMP DP  RH WIND       PRES   REMARKS
RICHMOND       CLOUDY    80  67  64 VRB3      30.19F
CHESTERFIELD*  MOSUNNY   77  63  61 CALM      30.21F
HANOVER        MOSUNNY   78  68  71 CALM      30.21F
TAPPAHANNOCK*  MOSUNNY   79  65  63 E5        30.20S
CHARLOTTSVILLE CLOUDY    76  70  82 S5        30.20S
ORANGE*        PTSUNNY   77  70  78 SE5       30.21S
LOUISA*        CLOUDY    75  70  83 CALM      30.20S
FARMVILLE*     CLOUDY    75  73  94 CALM      30.18S
SOUTH HILL*    MOSUNNY   79  72  78 NE3       30.24F
ROANOKE RAPIDS PTSUNNY   73  68  83 N7        30.17F
RALEIGH        CLOUDY    76  70  82 E5        30.18S
$$

VAZ088>098-221500-
SOUTHEAST VIRGINIA

CITY           SKY/WX    TMP DP  RH WIND       PRES   REMARKS
NORFOLK        PTSUNNY   78  71  79 NE9       30.17F
VIRGINIA BEACH PTSUNNY   79  72  79 E10       30.17F
NORFOLK NAVAL  PTSUNNY   80  72  76 NE12      30.19S
WEST POINT*    PTSUNNY   82  68  61 E3        30.20F
NEWPORT NEWS   MOSUNNY   82  72  71 E6        30.18F
LANGLEY AFB    PTSUNNY   79  72  80 E8        30.17F
FORT EUSTIS    MOSUNNY   80  72  75 NE7       30.16F
WILLIAMSBURG*  MOSUNNY   82  73  74 CALM      30.19S
FRANKLIN*      MOSUNNY   79  70  73 E6        30.17S
WAKEFIELD      PTSUNNY   80  71  74 CALM      30.18F
$$

VAZ020-022-025-037-045-221500-
WESTERN AND SOUTHWEST VIRGINIA

CITY           SKY/WX    TMP DP  RH WIND       PRES   REMARKS
STAUNTON*      PTSUNNY   76  68  74 S3        30.23S
HOT SPRINGS VA CLOUDY    64  62  93 W6        30.35R FOG
LYNCHBURG      MOSUNNY   77  67  71 S5        30.22F
DANVILLE       CLOUDY    74  69  85 E3        30.20F
MARTINSVILLE   MOSUNNY   77  70  77 CALM      30.23S
ROANOKE        CLOUDY    75  69  81 SE3       30.24S
BLACKSBURG     MOSUNNY   73  70  88 CALM      30.28S
DUBLIN*        PTSUNNY   74  70  88 CALM      30.27S
MARION*        MOSUNNY   73  67  80 E3        30.29F
HILLSVILLE*    CLOUDY    71  65  82 E7        30.28S
RICHLANDS*     SUNNY     77  66  68 SE3       30.26S
WISE*          SUNNY     75  63  64 S5        30.26F
ABINGDON*      SUNNY     78  67  69 E6        30.23F
$$

MDZ021>025-VAZ099-100-221500-
SOUTHERN MARYLAND AND THE DELMARVA PENINSULA

CITY           SKY/WX    TMP DP  RH WIND       PRES   REMARKS
PATUXENT RIVER PTSUNNY   78  70  76 SE6       30.19F
BAY BRIDGE APT   N/A     77  68  73 SE6       30.20S
LEONARDTOWN    CLOUDY    77  68  73 CALM      30.21S
DOVER          MOSUNNY   79  69  70 SE3       30.19S
GEORGETOWN     SUNNY     78  63  59 SE7       30.21S
EASTON         SUNNY     82  64  54 SE6       30.23F
CAMBRIDGE      MOSUNNY   79  64  61 CALM      30.19F
SALISBURY      NOT AVBL
OCEAN CITY     MOSUNNY   76  67  73 E6        30.20F
WALLOPS ISLAND MOSUNNY   77  71  82 E7        30.20F
ACCOMACK*        N/A     77  68  73 E8        30.19F
$$

NCZ012>017-030>032-221500-
EASTERN NORTH CAROLINA

CITY           SKY/WX    TMP DP  RH WIND       PRES   REMARKS
ELIZABETH CITY PTSUNNY   79  71  76 E10       30.16F
AHOSKIE*       PTSUNNY   76  69  77 NE3       30.17S
EDENTON*       CLOUDY    78  74  87 E6        30.16S
CURRITUCK*     PTSUNNY   80  70  70 E8        30.17F
KILL DEVIL HLS PTSUNNY   78  75  90 CALM      30.15R
MANTEO         NOT AVBL
CAPE HATTERAS  PTSUNNY   80  76  87 SE5       30.15R
GOLDSBORO      CLOUDY    77  76  98 VRB6      30.14R
WASHINGTON     PTSUNNY   77  74  90 NE6       30.15F
GREENVILLE     CLOUDY    77  73  88 NE6       30.17R
NEW BERN       PTSUNNY   81  75  83 CALM      30.15S
WILMINGTON     PTSUNNY   80  75  84 SE6       30.13R
$$

VAZ048-221500-
ELSEWHERE

CITY           SKY/WX    TMP DP  RH WIND       PRES   REMARKS
HARRISBURG PA  CLOUDY    77  70  79 VRB3      30.17F
BALTIMORE      CLOUDY    76  69  79 S3        30.19F
ANNAPOLIS      CLOUDY    77  71  82 SE8       30.19F
ANDREWS AFB    SUNNY     79  70  75 SE5       30.20S
WILMINGTON DE  SUNNY     80  71  74 VRB5      30.19F
PHILADELPHIA   MOSUNNY   78  67  68 W7        30.19F
WILDWOOD NJ*   MOSUNNY   79  66  65 SE7       30.21F
ATLANTIC CITY  SUNNY     79  65  62 CALM      30.19F
HENDERSON NC   CLOUDY    76  69  78 NE6       30.19F
GREENSBORO     CLOUDY    74  70  87 E6        30.19F
ROCKY MOUNT    CLOUDY    78  72  81 NE5       30.16F
FAYETTEVILLE   CLOUDY    76  73  91 NE6       30.15R
CHARLOTTE      CLOUDY    74  69  85 VRB5      30.19R
$$

VAZ100-221500-
MARINE

STATION/POSITION TIME  TEMP    WIND        PRES    WAVE   SWELL
                       AIR SEA DIR/SP/G            HT/PER HT/PER
                 (UTC) (F)     (DEG/KT/KT) (MB)    (FT/S) (FT/S)
44066 TX TWR #4  1400   73 73  180/  2/  2 1022.2F   2/ 7   2/ 7
CAPE MAY NJ      1400   73 74  200/  6/  7 1022.6R
LEWES DE         1400   75 70  100/  4/  6 1022.5S
15NM E FENWICK I 1400   74 75              1022.9F   2/ 7
OCEAN-CITY-INLET 1400   74 70   70/  5/  6 1022.3F
WACHAPREAGUE VA  1400   75 77   70/  8/ 11 1022.1F
THOMAS POINT MD  1400   76 79  150/  5/  6 1023.0S
GOOSES REEF MD   1400   76     160/  4/  6 1022.9F
COVE POINT MD    1400   75     150/  4/  5 1022.4S
SOLOMONS ISLAND  1400      81                N/A
BISHOPS HEAD MD  1400   76 78   70/  5/  6 1022.1R
PINEY POINT MD   1400          120/  5/  6   N/A
POTOMAC MD       1400   77     110/  6/  8 1021.6F
CAMBRIDGE MD     1400   76 80   60/  4/  4 1022.2S
LEWISETTA VA     1400   77 79  110/  7/  8 1022.1S
RAPPAHANNOCK LGT 1400           60/  7/  8 1022.7S
STINGRAY PT      1300   76     100/  2/  8 1021.5F
YORK RVR RNG VA  1400   76     110/  7/  9 1021.6R
YORKTOWN VA      1400   76 80   90/  8/  9 1021.9R
JAMESTOWN VA     1400   77     130/  6/  8   N/A
DOMINION TERM VA 1400   76      70/ 10/ 13 1021.9S
KIPTOPEKE VA     1400      79   70/  8/ 11   N/A
CHES BAY BRIDGE  1400   75 76   50/  9/  9 1021.3S
CAPE HENRY VA    1400   76      70/  9/  9 1020.7S
WILLOUBY STN VA  1400           80/ 10/ 11 1021.2R
S CRANEY ISL VA  1400           30/  5/  6 1021.7S
CAPE HENRY BUOY  1400      75                N/A     2/ 6
1ST LANDING BUOY 1400   76      70/  8/ 10 1021.6R
CAPE CHARLES BUO 1400      75                N/A     2/ 8
OFFSHORE WE BUOY 1400      76                N/A     3/ 7
64NM E OF VA BCH 1400   76 77   60/ 10/ 12 1021.3F   3/ 8   2/ 8
DUCK PIER NC     1300   76 74   60/  9/ 10 1020.8S
44056 DUCK FRF   1400                        N/A     2/ 7
OREGON INLET NC  1400   77 76   90/  5/  8 1021.0R
HATTERAS NC      1400   78 80  130/  4/  6 1021.1S
DIAMOND SHLS NC  1400          VRB 12/ 14  1020.5R   3/ 8   2/ 8
CAPE LOOKOUT NC  1300   76     130/  6/  6 1020.1F
$$



USA.gov is the U.S. government's official web portal to all federal, state and local government web resources and services.